This demonstration page uses our WeatherBlox Daily Observations layout. Learn more.

Left ArrowRight Arrow

Hourly Observations for October 27, 2021

Temp ( °F °C ) Dew Point ( °F °C ) Humidity (%) Winds ( mph kmh ) Pressure ( in mb ) Visibility ( mi km ) Precip ( " mm )
12:09 am 00:09 Cloudy with Light Rain 56 13.3 56 13.3 100 100 ESE 7 11 29.54 1000 5 8 0.05 1.27
12:50 am 00:50 Mostly Cloudy with Mist and Fog 55 13 55 13 100 100 E 12 19 29.52 1000 6 10 0.05 1.27
12:53 am 00:53 Mostly Cloudy with Light Rain 56 13.3 56 13.3 100 100 ESE 9 15 29.52 1000 6 10 0.05 1.27
1:53 am 01:53 Cloudy with Rain 59 15 58 14.4 96 96 WSW 14 22 29.50 999 5 8 0.05 1.27
2:01 am 02:01 Cloudy with Light Rain 60 15.6 58 14.4 93 93 S 8 13 29.49 999 9 14 0.01 0.25
2:53 am 02:53 Clear with Mist and Fog 57 13.9 56 13.3 96 96 NNW 5 7 29.49 999 5 8 0.01 0.25
3:03 am 03:03 Partly Cloudy with Mist and Fog 57 13.9 57 13.9 100 100 N 3 6 29.49 999 6 10 N/A
3:53 am 03:53 Mostly Cloudy with Mist and Fog 56 13.3 56 13.3 100 100 N N/A 29.52 1000 4 6 N/A
4:04 am 04:04 Mostly Cloudy with Mist and Fog 57 13.9 56 13.3 96 96 N N/A 29.52 1000 4 6 N/A
4:53 am 04:53 Cloudy 59 15 57 13.9 93 93 S 5 7 29.52 1000 10 16 N/A
5:11 am 05:11 Cloudy 59 15 58 14.4 96 96 S 5 7 29.51 999 10 16 N/A
5:42 am 05:42 Cloudy with Heavy Rain 58 14.4 57 13.9 97 97 WNW 15 24 29.53 1000 3 4 0.04 1.02
5:53 am 05:53 Cloudy with Rain 52 11.1 51 10.6 97 97 NW 13 20 29.55 1001 2 3 0.09 2.29
5:58 am 05:58 Cloudy with Light Rain 51 10.6 51 10.6 100 100 NW 15 24 29.55 1001 3 4 0.01 0.25
6:05 am 06:05 Cloudy with Light Rain 51 10.6 50 10 96 96 NNW 15 24 29.55 1001 4 6 0.02 0.51
6:13 am 06:13 Cloudy with Light Rain 50 10 49 9.4 96 96 NW 16 26 29.57 1001 4 6 0.02 0.51
6:20 am 06:20 Cloudy with Light Rain 50 10 49 9.4 96 96 NW 18 30 29.58 1002 7 11 0.02 0.51
6:53 am 06:53 Cloudy with Rain 48 8.9 47 8.3 96 96 NNW 15 24 29.56 1001 4 6 0.07 1.78
7:09 am 07:09 Cloudy with Light Rain 48 8.9 47 8.3 96 96 NW 14 22 29.60 1002 5 8 0.01 0.25
7:31 am 07:31 Cloudy with Nearby Thunderstorms 47 8.3 46 7.8 97 97 NW 16 26 29.61 1003 3 5 0.02 0.51
7:51 am 07:51 Cloudy with Light Rain 46 8 46 8 100 100 NNW 18 30 29.61 1003 3 5 0.02 0.51
7:53 am 07:53 Cloudy with Light Rain 47 8.3 46 7.8 97 97 NW 15 24 29.59 1002 3 5 0.02 0.51
8:01 am 08:01 Cloudy with Heavy Rain 47 8.3 46 7.8 97 97 NW 18 30 29.62 1003 3 4 0.03 0.76
8:18 am 08:18 Cloudy with Light Rain 46 8 46 8 100 100 NW 21 33 29.63 1003 3 5 N/A
8:28 am 08:28 Cloudy with Light Rain 46 8 46 8 100 100 NW 21 33 29.63 1003 3 4 N/A
8:31 am 08:31 Cloudy with Light Rain 46 7.8 45 7.2 96 96 NW 18 30 29.64 1004 3 5 0.06 1.52
8:38 am 08:38 Cloudy with Light Rain 46 7.8 45 7.2 96 96 NW 20 31 29.64 1004 6 10 0.06 1.52
8:53 am 08:53 Cloudy with Light Rain 46 7.8 45 7.2 96 96 NW 17 28 29.62 1003 10 16 0.07 1.78
9:53 am 09:53 Cloudy 47 8.3 44 6.7 90 90 NNW 23 37 29.64 1004 10 16 0.00 0.00
10:53 am 10:53 Cloudy 46 7.8 45 7.2 96 96 NNW 20 31 29.66 1004 10 16 0.01 0.25
11:48 am 11:48 Cloudy with Rain 46 8 46 8 100 100 N 21 33 29.69 1006 3 5 0.06 1.52
11:53 am 11:53 Cloudy with Rain 46 7.8 46 7.8 100 100 N 21 33 29.67 1005 3 5 0.07 1.78
12:53 pm 12:53 Cloudy with Light Rain 47 8.3 45 7.2 93 93 N 23 37 29.65 1004 6 10 0.08 2.03
1:21 pm 13:21 Cloudy with Light Rain 47 8.3 46 7.8 97 97 N 20 31 29.66 1004 7 11 0.04 1.02
1:32 pm 13:32 Cloudy with Light Rain 46 8 46 8 100 100 N 21 33 29.66 1004 8 13 N/A
1:40 pm 13:40 Cloudy with Light Rain 47 8.3 46 7.8 97 97 N 25 41 29.65 1004 6 10 0.06 1.52
1:48 pm 13:48 Cloudy with Rain 46 8 46 8 100 100 N 21 33 29.64 1004 4 6 0.08 2.03
1:53 pm 13:53 Cloudy with Rain 47 8.3 46 7.8 97 97 N 26 43 29.61 1003 4 6 0.09 2.29
2:02 pm 14:02 Cloudy with Light Rain 46 8 46 8 100 100 NNW 23 37 29.65 1004 6 10 N/A
2:22 pm 14:22 Cloudy with Light Rain 47 8.3 45 7.2 93 93 NNW 23 37 29.66 1004 10 16 0.02 0.51
2:53 pm 14:53 Cloudy 48 8.9 45 7.2 89 89 NNW 29 46 29.62 1003 10 16 0.02 0.51
3:53 pm 15:53 Cloudy 48 8.9 45 7.2 89 89 NNW 26 43 29.64 1004 10 16 N/A
4:38 pm 16:38 Cloudy 48 9 45 7 87 87 NNW 22 35 29.69 1005 10 16 N/A
4:46 pm 16:46 Cloudy 48 8.9 45 7.2 89 89 NNW 21 33 29.69 1005 10 16 N/A
4:53 pm 16:53 Cloudy 48 8.9 45 7.2 89 89 NNW 22 35 29.67 1005 10 16 N/A
5:53 pm 17:53 Cloudy 48 8.9 44 6.7 86 86 NNW 18 30 29.70 1006 10 16 N/A
6:53 pm 18:53 Cloudy 49 9.4 45 7.2 86 86 NNW 16 26 29.72 1007 10 16 N/A
7:53 pm 19:53 Cloudy 49 9.4 44 6.7 83 83 NNW 15 24 29.74 1007 10 16 N/A
8:53 pm 20:53 Cloudy 49 9.4 44 6.7 83 83 NNW 14 22 29.75 1008 10 16 N/A
9:53 pm 21:53 Cloudy 48 8.9 43 6.1 83 83 NNW 14 22 29.77 1008 10 16 N/A
10:53 pm 22:53 Cloudy 48 8.9 42 5.6 80 80 NNW 14 22 29.79 1009 10 16 N/A
11:53 pm 23:53 Clear 47 8.3 40 4.4 77 77 NNW 14 22 29.78 1009 10 16 N/A

Powered by AerisWeather